Regional Weather Roundup
Issued by NWS Green Bay, WI

Home | Current Version | Previous Version | Graphics & Text | Print | Product List | Glossary Off
Versions: 1 2 3 4 5 6 7 8 9 10 11 12 13 14 15 16 17 18 19 20 21 22 23 24 25 26 27 28 29 30 31 32 33 34 35 36 37 38 39 40 41 42 43 44 45 46 47 48 49 50

000
ASUS43 KGRB 261911
RWRGRB

NORTH-CENTRAL AND NORTHEAST WISCONSIN REGIONAL WEATHER ROUNDUP
NATIONAL WEATHER SERVICE GREEN BAY WI
100 PM CST SUN FEB 26 2017

WIZ005-009-010>012-018-019-262000-
NORTH CENTRAL WISCONSIN

CITY           SKY/WX    TMP DP  RH WIND       PRES   REMARKS
IRONWOOD       LGT SNOW  29  24  82 W17       29.65S
MANITOWISH WTR FLURRIES  28  22  78 SW12G23   29.64R
ARBOR VITAE    CLOUDY    32  23  69 SW16        N/A
EAGLE RIVER    CLOUDY    29  19  66 W18G24    29.64S
LAND O LAKES   FLURRIES  28  21  74 SW9G17    29.65S
RHINELANDER    CLOUDY    32  21  64 SW15G26   29.66F
PHILLIPS       CLOUDY    30  20  67 SW10G18   29.67F
ANTIGO         CLOUDY    31  21  67 SW18      29.71S
TOMAHAWK       MOSUNNY   33  20  59 W10       29.69F
MERRILL        NOT AVBL
$$

WIZ013-073-262000-
NORTHEAST WISCONSIN

CITY           SKY/WX    TMP DP  RH WIND       PRES   REMARKS
IRON MOUNTAIN  CLOUDY    33  19  56 SW13G22   29.65F
MARINETTE      MOSUNNY   35  21  56 SW16G24   29.73F
OCONTO         SUNNY     35  21  57 SW14G24   29.75F
$$

WIZ017-030-035>037-045-262000-
CENTRAL WISCONSIN

CITY           SKY/WX    TMP DP  RH WIND       PRES   REMARKS
MEDFORD        MOSUNNY   31  20  65 SW12G18   29.72S
WAUSAU         CLOUDY    32  21  64 SW12      29.73S
MOSINEE        PTSUNNY   34  21  60 W17G24    29.75F
MARSHFIELD     CLOUDY    33  20  58 W13       29.74F
WISC RAPIDS    SUNNY     38  19  46 W15G23    29.78S
STEVENS POINT  PTSUNNY   34  20  55 SW13G21   29.76S
WAUPACA        SUNNY     41  22  47 SW14      29.77F
SHAWANO        MOSUNNY   38  22  51 SW15      29.75S
CLINTONVILLE   SUNNY     36  21  55 SW12G18   29.76F
WAUTOMA        SUNNY     38  22  52 SW14G24   29.79F
$$

WIZ038-039-048-051-262000-
FOX VALLEY

CITY           SKY/WX    TMP DP  RH WIND       PRES   REMARKS
NWS GREEN BAY  SUNNY     36  24  62 SW13      29.77F
APPLETON       MOSUNNY   36  21  55 SW17G23   29.76F
OSHKOSH        SUNNY     36  23  59 SW12G20   29.79F
FOND DU LAC    SUNNY     36  23  59 SW12G24   29.81F
$$

WIZ022-050-052-262000-
EAST CENTRAL WISCONSIN

CITY           SKY/WX    TMP DP  RH WIND       PRES   REMARKS
EPHRAIM        FAIR      32  24  70 SW9G16    29.73F
WASHINGTON ISL FAIR      32  22  66 SW18G25   29.73F
STURGEON BAY   SUNNY     34  22  61 SW18G24   29.76F
MANITOWOC      MOSUNNY   37  22  54 SW14      29.80F
SHEBOYGAN      SUNNY     36  24  62 SW22G29   29.82S
$$

LMZ563-521-522-541>543-262000-
LAKESHORE

STATION/POSITION TIME  TEMP    WIND        PRES    VSBY  WAVE
                       AIR SEA DIR/SP/G                  HT/PER
                 (UTC) (F)     (DEG/KT/KT) (MB)    (MI)  (FT/S)
SHEBOYGAN LKSHOR 1900   36     240/ 22/ 26 1010.5F
KEWAUNEE LKSHORE 1848   35     230/ 11/ 19 1008.3F
ALGOMA MARINA    1826          240/ 20/ 29   N/A
NORTHPORT PIER   1840   34     210/  8/ 21 1007.1F
SISTER BAY LKSHO 1820   36        CALM       N/A
CHAMBERS ISLAND  1840   33     190/  8/ 19 1007.1F
MENOMINEE LKSHOR 1848   34     230/ 14/ 22 1006.4F
$$




USA.gov is the U.S. government's official web portal to all federal, state and local government web resources and services.